Voltar ao catálogo

STARLINK-36789

AtivoComunicaçõesSSO
NORAD 68118·PAYLOAD·🇺🇸 United States

Lançado Mar 8, 2026 de Vandenberg Space Force Base

Loading…

Próximas Passagens (próximas 24 horas)

TLE

AtualizadoSource: CelesTrak SupGP

Época: Sep 14, 2026, 21:36 UTC

1 68118C 26044T   26257.90048611 -.00033792  00000+0 -10488-2 0  2576
2 68118  97.2851 216.9602 0001708  88.1563 195.7911 15.33461280    18

Acompanhe STARLINK-36789 em tempo real com AllMySat

Download on the App Store